Regional Weather Roundup
Issued by NWS Kansas City/Pleasant Hill, MO

Home | Current Version | Previous Version | Graphics & Text | Print | Product List | Glossary Off
Versions: 1 2 3 4 5 6 7 8 9 10 11 12 13 14 15 16 17 18 19 20 21 22 23 24 25 26 27 28 29 30 31 32 33 34 35 36 37 38 39 40 41 42 43 44 45 46 47 48 49 50

000
ASUS43 KEAX 270310
RWREAX

WEATHER ROUNDUP FOR EASTERN KANSAS AND NORTHWEST MISSOURI
NATIONAL WEATHER SERVICE KANSAS CITY/PLEASANT HILL MO
1000 PM CDT SUN APR 26 2015

KSZ040-057-103>105-MOZ028-029-037-043-270400-
...KANSAS CITY METROPOLITAN AREA...

CITY           SKY/WX    TMP DP  RH WIND       PRES   REMARKS
K.C. INTL      PTCLDY    53  38  56 E8        30.01R
K.C. DOWNTOWN  MOCLDY    54  39  57 E6        30.01R
LEES SUMMIT    PTCLDY    53  36  52 NE8       30.01R
OLATHE - IXD   PTCLDY    52  38  58 NE8       30.00R
OLATHE - OJC   PTCLDY    52  36  54 NE8       29.99R
LAWRENCE       MOCLDY    50  39  66 NE7       30.01R

$$

MOZ001>008-011>017-020>025-030>033-038>040-044>046-053-054-270400-
...NORTHERN AND CENTRAL MISSOURI...

CITY           SKY/WX    TMP DP  RH WIND       PRES   REMARKS
ST. JOSEPH     CLEAR     53  36  52 NE8       30.04R
MOSBY          PTCLDY    50  39  66 NE3       30.02R
WARRENSBURG    MOCLDY    50  37  62 N7        30.01R
WHITEMAN AFB   MOCLDY    51  38  62 NE8       30.00R
CLINTON        PTCLDY    52  39  62 NE7       29.99R
SEDALIA        MOCLDY    53  36  52 NE9       30.02R
WARSAW         NOT AVBL
MARSHALL       PTCLDY    54  39  58 NE6       30.04R
CHILLICOTHE      N/A     52  39  61 NE3       30.06R
MOBERLY        CLEAR     48  36  61 NE6       30.05R
KIRKSVILLE     CLEAR     46  36  68 NE7       30.05R

$$

MOZ041-047>049-056>058-063>065-088>090-097-270400-
...EASTERN AND SOUTHERN MISSOURI...

CITY           SKY/WX    TMP DP  RH WIND       PRES   REMARKS
ST. LOUIS INTL PTCLDY    55  36  48 NE6       30.03R
SPIRIT OF STL  FAIR      53  37  54 NE7       30.01R
COLUMBIA       CLEAR     50  38  63 NE8       30.02R
JEFFERSON CITY PTCLDY    56  33  42 NE7       30.01R
MEXICO         FAIR      50  41  71 NE7       30.02R
HANNIBAL       CLEAR     52  32  46 CALM      30.05R
ROLLA          PTCLDY    47  36  65 NE7       29.98R
LEBANON        PTCLDY    54  36  50 NE12      29.96S
OSAGE BEACH    PTCLDY    50  36  57 NE6       29.99R
SPRINGFIELD    MOCLDY    50  44  80 E3        29.94R
BRANSON        MOCLDY    50  45  81 CALM      29.93R
NEVADA         PTCLDY    52  43  71 NE12      29.96R
JOPLIN         CLOUDY    52  45  77 E7        29.92R
WEST PLAINS    PTCLDY    52  44  74 E3        29.95R

$$

IAZ060-094-KSZ022-034>040-054-083-096-NEZ052-066-093-270400-
...KANSAS...SOUTHEAST NEBRASKA AND IOWA...

CITY           SKY/WX    TMP DP  RH WIND       PRES   REMARKS
TOPEKA         MOCLDY    53  39  59 NE7       30.01R
MANHATTAN      PTCLDY    50  42  74 NE8       29.99R
EMPORIA        FAIR      51  44  77 NE8       29.95R
CHANUTE        CLOUDY    53  46  77 NE8       29.92R
WICHITA        CLOUDY    53  45  74 E10       29.94R
OMAHA          PTCLDY    54  34  46 E6        30.06R
LINCOLN        CLEAR     54  36  50 SE6       30.09R
FALLS CITY     CLEAR     52  34  50 NE6       30.04R
LAMONI         CLEAR     51  31  46 E6        30.06R
DES MOINES     CLEAR     55  24  30 E5        30.07R

$$




USA.gov is the U.S. government's official web portal to all federal, state and local government web resources and services.